Weather History for Show Low, AZ

Change the Weather History Date:

Monday, December 3, 2012

  Actual Average Record
Temperature  
Mean Temperature 44 °F -  
Max Temperature 57 °F 46 °F 67 °F (1977)
Min Temperature 32 °F 27 °F 7 °F (1991)
Degree Days  
Heating Degree Days 20    
Moisture  
Dew Point 31 °F    
Average Humidity 60    
Maximum Humidity 87    
Minimum Humidity 38    
Precipitation  
Precipitation 0.00 in - - ()
Sea Level Pressure  
Sea Level Pressure 30.21 in    
Wind  
Wind Speed 11 mph (SSW)    
Max Wind Speed 21 mph    
Max Gust Speed 28 mph    
Visibility 10 miles    
Events      
Averages and records for this station are not official NWS values.
T = Trace of Precipitation, MM = Missing Value Source: NWS Daily Summary

Daily Weather History Graph

Daily Weather History Graph

Search for Another Location

Airport:

Trip Planner

Search our weather history database for the weather conditions in past years. The results will help you decide how hot, cold, wet, or windy it might be!

Date:

Astronomy

Dec. 03, 2012 Rise Set
Actual Time 7:10 AM MST 5:09 PM MST
Civil Twilight 6:42 AM MST 5:37 PM MST
Nautical Twilight 6:11 AM MST 6:08 PM MST
Astronomical Twilight 5:41 AM MST 6:38 PM MST
Moon 9:52 PM MST (12/3) 10:41 AM MST (12/3)
Length of Visible Light 10h 54m
Length of Day
9h 59m
Waning Gibbous, 77% of the Moon is Illuminated
Dec 3
Waning Gibbous
Dec 6
Last Quarter
Dec 13
New
Dec 19
First Quarter
Dec 28
Full

Hourly Weather History & Observations

Time (MST) Temp. Windchill Dew Point Humidity Pressure Visibility Wind Dir Wind Speed Gust Speed Precip Events Conditions
12:15 AM 44.6 °F 38.4 °F 24.8 °F 46% 30.14 in 10.0 mi South 12.7 mph 19.6 mph N/A   Clear
12:35 AM 44.6 °F 37.4 °F 26.6 °F 49% 30.14 in 10.0 mi South 16.1 mph 23.0 mph N/A   Clear
12:55 AM 44.6 °F 36.6 °F 24.8 °F 46% 30.11 in 10.0 mi South 19.6 mph 27.6 mph N/A   Clear
1:15 AM 44.6 °F 36.6 °F 26.6 °F 49% 30.09 in 10.0 mi South 19.6 mph 25.3 mph N/A   Clear
1:35 AM 44.6 °F 36.9 °F 26.6 °F 49% 30.12 in 10.0 mi SSW 18.4 mph 24.2 mph N/A   Clear
1:55 AM 44.6 °F 36.6 °F 26.6 °F 49% 30.13 in 10.0 mi South 19.6 mph 27.6 mph N/A   Clear
2:15 AM 44.6 °F 36.6 °F 26.6 °F 49% 30.12 in 10.0 mi South 19.6 mph 26.5 mph N/A   Clear
2:35 AM 44.6 °F 36.4 °F 28.4 °F 53% 30.12 in 10.0 mi South 20.7 mph 25.3 mph N/A   Clear
2:55 AM 42.8 °F 35.8 °F 28.4 °F 57% 30.14 in 10.0 mi SSW 13.8 mph 19.6 mph N/A   Clear
3:15 AM 42.8 °F 38.0 °F 28.4 °F 57% 30.15 in 10.0 mi SSW 8.1 mph - N/A   Clear
3:35 AM 42.8 °F 36.6 °F 28.4 °F 57% 30.15 in 10.0 mi South 11.5 mph - N/A   Clear
3:55 AM 41.0 °F 34.7 °F 28.4 °F 61% 30.14 in 10.0 mi South 10.4 mph - N/A   Clear
4:15 AM 41.0 °F 34.3 °F 28.4 °F 61% 30.15 in 10.0 mi SSW 11.5 mph - N/A   Clear
4:35 AM 41.0 °F 33.5 °F 28.4 °F 61% 30.15 in 10.0 mi South 13.8 mph - N/A   Clear
4:55 AM 41.0 °F 37.1 °F 28.4 °F 61% 30.18 in 10.0 mi SW 5.8 mph - N/A   Clear
5:15 AM 39.2 °F 32.5 °F 28.4 °F 65% 30.18 in 10.0 mi SSW 10.4 mph - N/A   Clear
5:35 AM 39.2 °F 32.0 °F 28.4 °F 65% 30.18 in 10.0 mi SSW 11.5 mph - N/A   Clear
5:55 AM 39.2 °F 30.8 °F 30.2 °F 70% 30.18 in 10.0 mi SSW 15.0 mph - N/A   Partly Cloudy
6:15 AM 39.2 °F 30.8 °F 30.2 °F 70% 30.19 in 10.0 mi South 15.0 mph 19.6 mph N/A   Clear
6:35 AM 39.2 °F 31.6 °F 32.0 °F 75% 30.19 in 10.0 mi South 12.7 mph - N/A   Clear
6:55 AM 39.2 °F 33.0 °F 32.0 °F 75% 30.21 in 10.0 mi SSW 9.2 mph - N/A   Clear
7:15 AM 37.4 °F 30.8 °F 32.0 °F 81% 30.21 in 10.0 mi South 9.2 mph - N/A   Clear
7:35 AM 39.2 °F 33.6 °F 32.0 °F 75% 30.21 in 10.0 mi South 8.1 mph - N/A   Clear
7:55 AM 39.2 °F 34.2 °F 32.0 °F 75% 30.22 in 10.0 mi SW 6.9 mph - N/A   Clear
8:15 AM 41.0 °F 37.1 °F 32.0 °F 70% 30.23 in 10.0 mi SSW 5.8 mph - N/A   Clear
8:35 AM 42.8 °F 41.1 °F 32.0 °F 66% 30.23 in 10.0 mi SW 3.5 mph - N/A   Clear
8:55 AM 44.6 °F 43.1 °F 32.0 °F 61% 30.24 in 10.0 mi SSW 3.5 mph - N/A   Clear
9:15 AM 46.4 °F 43.5 °F 33.8 °F 62% 30.25 in 10.0 mi SSW 5.8 mph - N/A   Clear
9:35 AM 46.4 °F 43.5 °F 35.6 °F 66% 30.25 in 10.0 mi South 5.8 mph - N/A   Clear
9:55 AM 48.2 °F - 33.8 °F 58% 30.25 in 10.0 mi South 5.8 mph - N/A   Clear
10:15 AM 50.0 °F - 33.8 °F 54% 30.25 in 10.0 mi WSW 6.9 mph - N/A   Clear
10:35 AM 50.0 °F - 33.8 °F 54% 30.24 in 10.0 mi SW 4.6 mph - N/A   Clear
10:55 AM 51.8 °F - 32.0 °F 47% 30.25 in 10.0 mi West 12.7 mph - N/A   Clear
11:15 AM 51.8 °F - 33.8 °F 50% 30.24 in 10.0 mi SW 11.5 mph - N/A   Clear
11:35 AM 53.6 °F - 33.8 °F 47% 30.23 in 10.0 mi WSW 9.2 mph - N/A   Clear
11:55 AM 53.6 °F - 33.8 °F 47% 30.23 in 10.0 mi WSW 5.8 mph - N/A   Clear
12:15 PM 53.6 °F - 32.0 °F 44% 30.23 in 10.0 mi WSW 6.9 mph - N/A   Clear
12:35 PM 53.6 °F - 32.0 °F 44% 30.22 in 10.0 mi SW 11.5 mph - N/A   Clear
12:55 PM 53.6 °F - 32.0 °F 44% 30.21 in 10.0 mi WSW 6.9 mph - N/A   Clear
1:15 PM 55.4 °F - 32.0 °F 41% 30.20 in 10.0 mi SW 10.4 mph - N/A   Clear
1:35 PM 55.4 °F - 32.0 °F 41% 30.19 in 10.0 mi SW 12.7 mph 18.4 mph N/A   Clear
1:55 PM 55.4 °F - 32.0 °F 41% 30.19 in 10.0 mi SW 9.2 mph - N/A   Clear
2:15 PM 55.4 °F - 32.0 °F 41% 30.19 in 10.0 mi WSW 11.5 mph 19.6 mph N/A   Clear
2:35 PM 57.2 °F - 32.0 °F 38% 30.18 in 10.0 mi SW 12.7 mph - N/A   Clear
2:55 PM 57.2 °F - 32.0 °F 38% 30.18 in 10.0 mi SW 11.5 mph 19.6 mph N/A   Clear
3:15 PM 55.4 °F - 32.0 °F 41% 30.18 in 10.0 mi SW 13.8 mph - N/A   Clear
3:35 PM 57.2 °F - 32.0 °F 38% 30.18 in 10.0 mi SW 15.0 mph 19.6 mph N/A   Clear
3:55 PM 55.4 °F - 32.0 °F 41% 30.18 in 10.0 mi SW 12.7 mph 19.6 mph N/A   Clear
4:15 PM 55.4 °F - 32.0 °F 41% 30.18 in 10.0 mi SW 15.0 mph 19.6 mph N/A   Clear
4:35 PM 53.6 °F - 32.0 °F 44% 30.18 in 10.0 mi SW 12.7 mph - N/A   Clear
4:55 PM 51.8 °F - 33.8 °F 50% 30.19 in 10.0 mi SSW 9.2 mph - N/A   Clear
5:15 PM 50.0 °F - 33.8 °F 54% 30.19 in 10.0 mi SSW 10.4 mph - N/A   Clear
5:35 PM 48.2 °F - 33.8 °F 58% 30.21 in 10.0 mi SSW 8.1 mph - N/A   Clear
5:55 PM 46.4 °F 42.9 °F 32.0 °F 57% 30.22 in 10.0 mi SSW 6.9 mph - N/A   Clear
6:15 PM 46.4 °F 42.9 °F 32.0 °F 57% 30.24 in 10.0 mi NNW 6.9 mph - N/A   Clear
6:35 PM 46.4 °F 44.3 °F 33.8 °F 62% 30.25 in 10.0 mi West 4.6 mph - N/A   Clear
6:55 PM 44.6 °F 41.4 °F 32.0 °F 61% 30.26 in 10.0 mi WSW 5.8 mph - N/A   Clear
7:15 PM 44.6 °F 43.1 °F 32.0 °F 61% 30.27 in 10.0 mi WSW 3.5 mph - N/A   Clear
7:35 PM 42.8 °F 41.1 °F 32.0 °F 66% 30.27 in 10.0 mi SSE 3.5 mph - N/A   Clear
7:55 PM 39.2 °F 35.9 °F 32.0 °F 75% 30.27 in 10.0 mi South 4.6 mph - N/A   Clear
8:15 PM 37.4 °F 34.9 °F 32.0 °F 81% 30.27 in 10.0 mi South 3.5 mph - N/A   Clear
8:35 PM 37.4 °F - 32.0 °F 81% 30.27 in 9.0 mi Calm Calm - N/A   Clear
8:55 PM 35.6 °F - 30.2 °F 81% 30.28 in 10.0 mi Calm Calm - N/A   Clear
9:15 PM 35.6 °F - 30.2 °F 81% 30.29 in 10.0 mi Calm Calm - N/A   Clear
9:35 PM 33.8 °F 28.6 °F 28.4 °F 81% 30.30 in 10.0 mi South 5.8 mph - N/A   Clear
9:55 PM 33.8 °F 29.6 °F 30.2 °F 87% 30.29 in 10.0 mi South 4.6 mph - N/A   Clear
10:15 PM 33.8 °F 29.6 °F 28.4 °F 81% 30.30 in 10.0 mi South 4.6 mph - N/A   Clear
10:35 PM 32.0 °F 28.7 °F 28.4 °F 87% 30.30 in 10.0 mi South 3.5 mph - N/A   Clear
10:55 PM 32.0 °F - 28.4 °F 87% 30.30 in 10.0 mi Calm Calm - N/A   Clear
11:15 PM 32.0 °F - 28.4 °F 87% 30.31 in 10.0 mi Calm Calm - N/A   Clear
11:35 PM 32.0 °F 26.4 °F 28.4 °F 87% 30.31 in 10.0 mi SSE 5.8 mph - N/A   Clear
11:55 PM 32.0 °F 26.4 °F 28.4 °F 87% 30.32 in 10.0 mi SSE 5.8 mph - N/A   Clear